Regional Weather Roundup
Issued by NWS

Home | Current Version | Previous Version | Graphics & Text | Print | Product List | Glossary On
Versions: 1 2 3 4 5 6 7 8 9 10 11 12 13 14 15 16 17 18 19 20 21 22 23 24 25 26 27 28 29 30 31 32 33 34 35 36 37 38 39 40 41 42 43 44 45 46 47 48 49 50
000
ASUS43 KFSD 160910
RWRSD

WEATHER ROUNDUP FOR SOUTH DAKOTA
NATIONAL WEATHER SERVICE SIOUX FALLS SD
400 AM CDT MON OCT 16 2017

NOTE: "FAIR" INDICATES FEW OR NO CLOUDS BELOW 12,000 FEET WITH NO
SIGNIFICANT WEATHER AND/OR OBSTRUCTIONS TO VISIBILITY.


SDZ001>005-009-010-012>017-161000-
NORTHWEST AND NORTH CENTRAL SOUTH DAKOTA

CITY           SKY/WX    TMP DP  RH WIND       PRES   REMARKS
BUFFALO          N/A     43  28  55 W5        30.06F
FAITH            N/A     37  28  70 S16       30.14F
MOBRIDGE       CLEAR     38  32  79 SE7       30.14F
$$

SDZ012>016-024>037-041>051-057-063-072>074-161000-
SOUTHWEST AND SOUTH CENTRAL SOUTH DAKOTA

CITY           SKY/WX    TMP DP  RH WIND       PRES   REMARKS
RAPID CTY ARPT CLEAR     34  26  72 E3        30.18F
PIERRE         CLEAR     34  30  85 S5        30.20F WCI  30
CUSTER         CLOUDY    40  21  46 SW3       30.24F
ELLSWORTH AFB  CLEAR     38  27  65 W5        30.16F
PHILIP         CLEAR     32  30  92 CALM      30.19F
PINE RIDGE     CLEAR     46  29  51 SW10      30.21F
SPEARFISH      FAIR      45  25  45 CALM      30.17F
WINNER         FAIR      43  31  62 SW7       30.24F
$$

SDZ004>011-016>023-039-040-161000-
NORTHEAST SOUTH DAKOTA

CITY           SKY/WX    TMP DP  RH WIND       PRES   REMARKS
ABERDEEN       CLEAR     26  26 100 S7        30.21F WCI  18
WATERTOWN      CLEAR     31  30  96 SE5       30.21F WCI  26
BROOKINGS      CLEAR     37  31  78 S6        30.26S
SISSETON         N/A     41  32  70 SW6       30.18F
$$

SDZ017-020-022-023-036>040-048>070-161000-
SOUTHEAST SOUTH DAKOTA

CITY           SKY/WX    TMP DP  RH WIND       PRES   REMARKS
SIOUX FALLS    CLEAR     38  35  89 SW5       30.28S
HURON          CLEAR     34  31  88 S3        30.24F
CHAMBERLAIN    CLEAR     35  35 100 CALM      30.24F
MITCHELL       CLEAR     36  32  85 CALM      30.26F
YANKTON        CLEAR     36  33  89 CALM      30.28F
$$

ABBREVIATIONS USED IN REMARKS
   TC - TEMPERATURE IN CELSIUS
  WCI - WIND CHILL INDEX
   HX - HEAT INDEX
  VSB - VISIBILITY





USA.gov is the U.S. government's official web portal to all federal, state and local government web resources and services.